Weather History for Moriarty, NM

Change the Weather History Date:

Saturday, February 22, 2014

  Actual Average (KABQ) Record (KABQ)
Temperature  
Mean Temperature 36 °F 43 °F  
Max Temperature 58 °F 55 °F 71 °F (1918)
Min Temperature 14 °F 32 °F 12 °F (1953)
Degree Days  
Heating Degree Days 29 22  
Month to date heating degree days 535  
Since 1 July heating degree days 3177  
Cooling Degree Days 0 0  
Month to date cooling degree days 0  
Year to date cooling degree days 0  
Moisture  
Dew Point 8 °F    
Average Humidity 34    
Maximum Humidity 60    
Minimum Humidity 16    
Precipitation  
Precipitation 0.00 in 0.01 in 0.25 in (1940)
Month to date precipitation 0.37  
Year to date precipitation 0.75  
Snow  
Snow 0.00 in - - ()
Month to date snowfall  
Since 1 July snowfall  
Snow Depth -    
Sea Level Pressure  
Sea Level Pressure 29.99 in    
Wind  
Wind Speed 7 mph (WNW)    
Max Wind Speed 24 mph    
Max Gust Speed 33 mph    
Visibility 10 miles    
Events      
T = Trace of Precipitation, MM = Missing Value Source: NWS Daily Summary

Daily Weather History Graph

Daily Weather History Graph

Search for Another Location

Airport:

Trip Planner

Search our weather history database for the weather conditions in past years. The results will help you decide how hot, cold, wet, or windy it might be!

Date:

Astronomy

Feb. 22, 2014 Rise Set
Actual Time 6:41 AM MST 5:53 PM MST
Civil Twilight 6:16 AM MST 6:19 PM MST
Nautical Twilight 5:46 AM MST 6:48 PM MST
Astronomical Twilight 5:17 AM MST 7:17 PM MST
Moon 12:34 AM MST (2/22) 11:12 AM MST (2/22)
Length of Visible Light 12h 02m
Length of Day
11h 11m
Waning Gibbous, 49% of the Moon is Illuminated
Feb 22
Waning Gibbous
Mar 1
New
Mar 8
First Quarter
Mar 16
Full
Mar 23
Last Quarter

Hourly Weather History & Observations

Time (MST) Temp. Windchill Dew Point Humidity Pressure Visibility Wind Dir Wind Speed Gust Speed Precip Events Conditions
12:15 AM 25.3 °F 18.5 °F 5.4 °F 43% 30.02 in 10.0 mi SSE 5.8 mph - N/A   Clear
12:35 AM 25.0 °F 17.1 °F 5.9 °F 44% 30.01 in 10.0 mi WSW 6.9 mph - N/A   Clear
12:55 AM 30.6 °F 23.1 °F 7.5 °F 38% 30.00 in 10.0 mi West 8.1 mph - N/A   Clear
1:15 AM 25.5 °F 19.9 °F 5.4 °F 42% 30.00 in 10.0 mi WNW 4.6 mph - N/A   Clear
1:35 AM 27.0 °F 21.6 °F 6.6 °F 42% 30.00 in 10.0 mi WNW 4.6 mph - N/A   Clear
1:55 AM 19.4 °F - 3.9 °F 51% 30.00 in 10.0 mi Calm Calm - N/A   Clear
2:15 AM 25.2 °F - 6.1 °F 44% 30.00 in 10.0 mi Calm Calm - N/A   Clear
2:35 AM 16.9 °F 11.5 °F 3.0 °F 55% 29.99 in 10.0 mi NNE 3.5 mph - N/A   Clear
2:55 AM 18.3 °F - 4.1 °F 54% 29.99 in 10.0 mi Calm Calm - N/A   Clear
3:15 AM 18.7 °F - 4.1 °F 53% 29.98 in 10.0 mi Calm Calm - N/A   Clear
3:35 AM 16.0 °F - 2.5 °F 55% 29.98 in 10.0 mi Calm Calm - N/A   Clear
3:55 AM 15.1 °F 7.7 °F 2.3 °F 57% 29.98 in 10.0 mi North 4.6 mph - N/A   Clear
4:15 AM 14.5 °F 7.1 °F 2.3 °F 58% 29.98 in 10.0 mi NNE 4.6 mph - N/A   Clear
4:35 AM 15.4 °F 9.8 °F 3.0 °F 58% 29.99 in 10.0 mi NE 3.5 mph - N/A   Clear
4:55 AM 17.1 °F - 4.3 °F 57% 30.00 in 10.0 mi Calm Calm - N/A   Clear
5:15 AM 16.0 °F 10.4 °F 3.4 °F 58% 29.99 in 10.0 mi NE 3.5 mph - N/A   Clear
5:35 AM 16.7 °F 8.3 °F 3.2 °F 55% 30.00 in 10.0 mi North 5.8 mph - N/A   Clear
5:55 AM 15.6 °F - 4.1 °F 60% 30.00 in 10.0 mi Calm Calm - N/A   Clear
6:15 AM 15.1 °F 6.4 °F 3.4 °F 60% 30.00 in 10.0 mi North 5.8 mph - N/A   Clear
6:35 AM 16.9 °F 11.5 °F 5.2 °F 60% 30.00 in 10.0 mi NNE 3.5 mph - N/A   Clear
6:55 AM 16.7 °F 9.6 °F 4.1 °F 58% 30.00 in 10.0 mi NNE 4.6 mph - N/A   Clear
7:15 AM 19.2 °F - 6.1 °F 57% 30.00 in 10.0 mi Calm Calm - N/A   Clear
7:35 AM 25.3 °F 21.1 °F 8.2 °F 48% 30.00 in 10.0 mi East 3.5 mph - N/A   Clear
7:55 AM 31.1 °F - 9.3 °F 40% 30.02 in 10.0 mi Calm Calm - N/A   Clear
8:15 AM 34.9 °F - 9.7 °F 35% 30.02 in 10.0 mi Calm Calm - N/A   Clear
8:35 AM 38.5 °F - 11.1 °F 33% 30.02 in 10.0 mi Calm Calm - N/A   Clear
8:55 AM 44.2 °F - 11.7 °F 27% 30.02 in 10.0 mi Calm Calm - N/A   Clear
9:15 AM 48.6 °F - 11.3 °F 22% 30.02 in 10.0 mi West 12.7 mph 18.4 mph N/A   Clear
9:35 AM 49.8 °F - 11.3 °F 21% 30.02 in 10.0 mi West 15.0 mph 19.6 mph N/A   Clear
9:55 AM 51.1 °F - 11.1 °F 20% 30.02 in 10.0 mi WSW 13.8 mph 19.6 mph N/A   Clear
10:15 AM 52.2 °F - 10.9 °F 19% 30.01 in 10.0 mi WSW 17.3 mph 21.9 mph N/A   Clear
10:35 AM 52.7 °F - 10.8 °F 19% 30.00 in 10.0 mi WSW 16.1 mph 19.6 mph N/A   Clear
10:55 AM 54.0 °F - 10.6 °F 18% 30.00 in 10.0 mi West 17.3 mph 20.7 mph N/A   Clear
11:15 AM 54.7 °F - 10.9 °F 18% 30.00 in 10.0 mi WSW 17.3 mph 25.3 mph N/A   Clear
11:30 AM 54.5 °F - 10.9 °F 18% 29.99 in 10.0 mi WNW 19.6 mph 27.6 mph N/A   Clear
11:55 AM 55.4 °F - 11.1 °F 17% 29.99 in 10.0 mi West 20.7 mph 28.8 mph N/A   Clear
12:15 PM 55.2 °F - 11.1 °F 17% 29.98 in 10.0 mi West 19.6 mph 27.6 mph N/A   Clear
12:35 PM 55.4 °F - 11.3 °F 17% 29.98 in 10.0 mi West 17.3 mph 26.5 mph N/A   Clear
12:55 PM 56.1 °F - 11.3 °F 17% 29.96 in 10.0 mi West 12.7 mph 25.3 mph N/A   Clear
1:15 PM 56.3 °F - 11.3 °F 17% 29.96 in 10.0 mi West 19.6 mph 26.5 mph N/A   Clear
1:35 PM 56.5 °F - 11.3 °F 17% 29.95 in 10.0 mi West 21.9 mph 32.2 mph N/A   Clear
1:55 PM 57.2 °F - 11.5 °F 16% 29.95 in 10.0 mi West 16.1 mph 26.5 mph N/A   Clear
2:15 PM 57.9 °F - 12.0 °F 16% 29.93 in 10.0 mi West 15.0 mph 27.6 mph N/A   Clear
2:35 PM 57.6 °F - 11.7 °F 16% 29.93 in 10.0 mi West 24.2 mph 31.1 mph N/A   Clear
2:55 PM 57.2 °F - 11.3 °F 16% 29.93 in 10.0 mi West 21.9 mph 33.4 mph N/A   Clear
3:15 PM 58.1 °F - 12.0 °F 16% 29.93 in 10.0 mi West 16.1 mph 25.3 mph N/A   Clear
3:35 PM 58.3 °F - 12.0 °F 16% 29.93 in 10.0 mi West 16.1 mph 23.0 mph N/A   Clear
3:55 PM 58.1 °F - 11.7 °F 16% 29.92 in 10.0 mi WNW 19.6 mph 27.6 mph N/A   Scattered Clouds
4:15 PM 57.9 °F - 11.3 °F 16% 29.93 in 10.0 mi WNW 23.0 mph 31.1 mph N/A   Scattered Clouds
4:35 PM 57.0 °F - 11.1 °F 16% 29.92 in 10.0 mi West 23.0 mph 28.8 mph N/A   Clear
4:55 PM 56.3 °F - 11.1 °F 17% 29.93 in 10.0 mi WNW 17.3 mph 20.7 mph N/A   Clear
5:15 PM 54.1 °F - 10.4 °F 17% 29.93 in 10.0 mi WNW 10.4 mph - N/A   Clear
5:35 PM 49.5 °F - 10.4 °F 21% 29.94 in 10.0 mi WNW 6.9 mph - N/A   Clear
5:55 PM 46.0 °F 41.9 °F 10.0 °F 23% 29.95 in 10.0 mi WNW 8.1 mph - N/A   Clear
6:15 PM 44.6 °F 40.2 °F 9.9 °F 24% 29.95 in 10.0 mi WNW 8.1 mph - N/A   Clear
6:35 PM 42.4 °F 36.5 °F 9.9 °F 26% 29.96 in 10.0 mi WNW 10.4 mph - N/A   Clear
6:55 PM 44.6 °F 40.2 °F 10.4 °F 25% 29.96 in 10.0 mi West 8.1 mph - N/A   Clear
7:15 PM 35.2 °F 29.5 °F 6.8 °F 31% 29.96 in 10.0 mi WSW 6.9 mph - N/A   Clear
7:35 PM 33.4 °F - 7.3 °F 34% 29.97 in 10.0 mi Calm Calm - N/A   Clear
7:55 PM 35.4 °F - 9.9 °F 35% 29.98 in 10.0 mi Calm Calm - N/A   Clear
8:15 PM 40.1 °F - 10.2 °F 29% 29.98 in 10.0 mi Calm Calm - N/A   Clear
8:35 PM 34.7 °F - 8.4 °F 33% 29.99 in 10.0 mi Calm Calm - N/A   Clear
8:55 PM 36.7 °F 32.9 °F 9.1 °F 32% 30.00 in 10.0 mi NE 4.6 mph - N/A   Clear
9:15 PM 34.2 °F 29.0 °F 8.6 °F 34% 30.01 in 10.0 mi East 5.8 mph - N/A   Clear
9:35 PM 32.9 °F 29.8 °F 8.4 °F 36% 30.02 in 10.0 mi East 3.5 mph - N/A   Clear
9:55 PM 30.0 °F - 7.0 °F 38% 30.02 in 10.0 mi Calm Calm - N/A   Clear
10:15 PM 29.3 °F 25.6 °F 7.2 °F 39% 30.02 in 10.0 mi SE 3.5 mph - N/A   Clear
10:35 PM 28.6 °F - 6.8 °F 40% 30.02 in 10.0 mi Calm Calm - N/A   Clear
10:55 PM 31.1 °F - 7.5 °F 37% 30.02 in 10.0 mi Calm Calm - N/A   Clear
11:15 PM 30.6 °F 27.1 °F 9.0 °F 40% 30.03 in 10.0 mi West 3.5 mph - N/A   Clear
11:35 PM 25.5 °F 18.7 °F 6.3 °F 44% 30.03 in 10.0 mi NE 5.8 mph - N/A   Clear
11:55 PM 23.5 °F 17.6 °F 6.6 °F 49% 30.04 in 10.0 mi NNE 4.6 mph - N/A   Clear